Time,TemperatureF,DewpointF,PressureIn,WindDirection,WindDirectionDegrees,WindSpeedMPH,WindSpeedGustMPH,Humidity,HourlyPrecipIn,Conditions,Clouds,dailyrainin,SoftwareType,DateUTC
2013-11-26 00:05:00,34.0,31.6,30.25,North,5,6.0,6.0,91,0.00,,,0.00,Wunderground v.1.15,2013-11-26 06:05:00,
2013-11-26 00:10:00,34.0,31.6,30.25,NNW,341,6.0,8.0,91,0.00,,,0.00,Wunderground v.1.15,2013-11-26 06:10:00,
2013-11-26 00:15:00,34.0,31.6,30.25,NNW,344,6.0,8.0,91,0.00,,,0.00,Wunderground v.1.15,2013-11-26 06:15:00,
2013-11-26 00:20:00,34.0,31.6,30.25,NNE,16,6.0,7.0,91,0.00,,,0.00,Wunderground v.1.15,2013-11-26 06:20:00,
2013-11-26 00:30:00,34.0,31.6,30.25,NNW,346,6.0,7.0,91,0.00,,,0.00,Wunderground v.1.15,2013-11-26 06:30:00,
2013-11-26 00:35:00,34.0,31.6,30.25,North,5,6.0,7.0,91,0.00,,,0.00,Wunderground v.1.15,2013-11-26 06:35:00,
2013-11-26 00:40:00,33.9,31.6,30.25,North,355,7.0,7.0,91,0.00,,,0.00,Wunderground v.1.15,2013-11-26 06:40:00,
2013-11-26 00:45:00,33.9,31.6,30.25,North,5,6.0,7.0,91,0.00,,,0.00,Wunderground v.1.15,2013-11-26 06:45:00,
2013-11-26 00:55:00,33.9,31.6,30.25,NNE,28,7.0,7.0,91,0.00,,,0.00,Wunderground v.1.15,2013-11-26 06:55:00,
2013-11-26 01:00:00,33.9,31.6,30.25,North,355,7.0,7.0,91,0.00,,,0.00,Wunderground v.1.15,2013-11-26 07:00:00,
2013-11-26 01:09:00,34.0,31.6,30.24,NNE,15,8.0,8.0,91,0.00,,,0.00,Wunderground v.1.15,2013-11-26 07:09:00,
2013-11-26 01:15:00,34.1,31.7,30.24,North,355,7.0,9.0,91,0.00,,,0.00,Wunderground v.1.15,2013-11-26 07:15:00,
2013-11-26 01:20:00,34.1,31.7,30.24,North,360,7.0,10.0,91,0.00,,,0.00,Wunderground v.1.15,2013-11-26 07:20:00,
2013-11-26 01:25:00,34.1,31.7,30.24,North,350,7.0,10.0,91,0.00,,,0.00,Wunderground v.1.15,2013-11-26 07:25:00,
2013-11-26 01:30:00,34.2,31.8,30.24,North,355,6.0,6.0,91,0.00,,,0.00,Wunderground v.1.15,2013-11-26 07:30:00,
2013-11-26 01:35:00,34.2,31.8,30.24,North,11,6.0,6.0,91,0.00,,,0.00,Wunderground v.1.15,2013-11-26 07:35:00,
2013-11-26 01:45:00,34.3,31.9,30.24,NNW,341,6.0,9.0,91,0.00,,,0.00,Wunderground v.1.15,2013-11-26 07:45:00,
2013-11-26 01:50:00,34.3,31.7,30.24,NNW,332,6.0,8.0,90,0.00,,,0.00,Wunderground v.1.15,2013-11-26 07:50:00,
2013-11-26 01:55:00,34.3,31.9,30.23,North,5,7.0,8.0,91,0.00,,,0.00,Wunderground v.1.15,2013-11-26 07:55:00,
2013-11-26 02:00:00,34.3,31.9,30.23,NNW,344,7.0,11.0,91,0.00,,,0.00,Wunderground v.1.15,2013-11-26 08:00:00,
2013-11-26 02:05:00,34.3,31.9,30.23,North,355,7.0,11.0,91,0.00,,,0.00,Wunderground v.1.15,2013-11-26 08:05:00,
2013-11-26 02:15:00,34.3,31.9,30.23,NW,321,6.0,7.0,91,0.00,,,0.00,Wunderground v.1.15,2013-11-26 08:15:00,
2013-11-26 02:20:00,34.3,31.9,30.24,North,349,6.0,9.0,91,0.00,,,0.00,Wunderground v.1.15,2013-11-26 08:20:00,
2013-11-26 02:25:00,34.4,32.0,30.24,North,360,7.0,9.0,91,0.00,,,0.00,Wunderground v.1.15,2013-11-26 08:25:00,
2013-11-26 02:30:00,34.4,31.8,30.24,North,350,6.0,6.0,90,0.00,,,0.00,Wunderground v.1.15,2013-11-26 08:30:00,
2013-11-26 02:39:00,34.5,31.9,30.24,NNE,24,7.0,11.0,90,0.00,,,0.00,Wunderground v.1.15,2013-11-26 08:39:00,
2013-11-26 02:49:00,34.7,32.1,30.24,North,9,5.0,5.0,90,0.00,,,0.00,Wunderground v.1.15,2013-11-26 08:49:00,
2013-11-26 02:54:00,34.7,32.1,30.25,North,350,4.0,5.0,90,0.00,,,0.00,Wunderground v.1.15,2013-11-26 08:54:00,
2013-11-26 03:00:00,34.7,31.8,30.24,NNE,14,5.0,8.0,89,0.00,,,0.00,Wunderground v.1.15,2013-11-26 09:00:00,
2013-11-26 03:05:00,34.8,31.9,30.24,North,5,6.0,8.0,89,0.00,,,0.00,Wunderground v.1.15,2013-11-26 09:05:00,
2013-11-26 03:10:00,34.8,31.9,30.24,NNW,347,6.0,9.0,89,0.00,,,0.00,Wunderground v.1.15,2013-11-26 09:10:00,
2013-11-26 03:20:00,34.8,31.9,30.24,North,5,6.0,8.0,89,0.00,,,0.00,Wunderground v.1.15,2013-11-26 09:20:00,
2013-11-26 03:25:00,34.8,31.9,30.25,North,5,5.0,8.0,89,0.00,,,0.00,Wunderground v.1.15,2013-11-26 09:25:00,
2013-11-26 03:34:00,34.8,31.9,30.25,NNW,346,4.0,5.0,89,0.00,,,0.00,Wunderground v.1.15,2013-11-26 09:34:00,
2013-11-26 03:39:00,34.8,31.9,30.24,North,350,4.0,4.0,89,0.00,,,0.00,Wunderground v.1.15,2013-11-26 09:39:00,
2013-11-26 03:45:00,34.8,31.9,30.25,NNW,348,4.0,4.0,89,0.00,,,0.00,Wunderground v.1.15,2013-11-26 09:45:00,
2013-11-26 03:50:00,34.8,31.9,30.25,North,355,3.0,3.0,89,0.00,,,0.00,Wunderground v.1.15,2013-11-26 09:50:00,
2013-11-26 04:00:00,34.8,31.9,30.24,North,360,2.0,3.0,89,0.00,,,0.00,Wunderground v.1.15,2013-11-26 10:00:00,
2013-11-26 04:05:00,34.8,31.9,30.24,NNE,13,4.0,6.0,89,0.00,,,0.00,Wunderground v.1.15,2013-11-26 10:05:00,
2013-11-26 04:15:00,34.8,31.9,30.23,North,360,4.0,6.0,89,0.00,,,0.00,Wunderground v.1.15,2013-11-26 10:15:00,
2013-11-26 04:20:00,34.7,31.8,30.24,NNW,344,4.0,4.0,89,0.00,,,0.00,Wunderground v.1.15,2013-11-26 10:20:00,
2013-11-26 04:30:00,34.7,31.8,30.24,NNW,331,4.0,4.0,89,0.00,,,0.00,Wunderground v.1.15,2013-11-26 10:30:00,
2013-11-26 04:35:00,34.8,31.9,30.24,North,355,4.0,4.0,89,0.00,,,0.00,Wunderground v.1.15,2013-11-26 10:35:00,
2013-11-26 04:40:00,34.8,31.9,30.25,NNW,342,4.0,5.0,89,0.00,,,0.00,Wunderground v.1.15,2013-11-26 10:40:00,
2013-11-26 04:45:00,34.8,31.9,30.25,North,5,3.0,5.0,89,0.00,,,0.00,Wunderground v.1.15,2013-11-26 10:45:00,
2013-11-26 04:54:00,34.8,31.9,30.25,North,360,3.0,5.0,89,0.00,,,0.00,Wunderground v.1.15,2013-11-26 10:54:00,
2013-11-26 05:00:00,34.9,32.0,30.25,NNE,24,3.0,3.0,89,0.00,,,0.00,Wunderground v.1.15,2013-11-26 11:00:00,
2013-11-26 05:05:00,35.0,32.1,30.26,North,355,3.0,5.0,89,0.00,,,0.01,Wunderground v.1.15,2013-11-26 11:05:00,
2013-11-26 05:10:00,35.0,32.1,30.25,North,360,3.0,3.0,89,0.00,,,0.01,Wunderground v.1.15,2013-11-26 11:10:00,
2013-11-26 05:19:00,35.0,32.1,30.24,North,355,5.0,5.0,89,0.00,,,0.01,Wunderground v.1.15,2013-11-26 11:19:00,
2013-11-26 05:30:00,35.1,32.2,30.25,NNE,15,5.0,5.0,89,0.00,,,0.01,Wunderground v.1.15,2013-11-26 11:30:00,
2013-11-26 05:35:00,35.2,32.3,30.26,North,355,4.0,5.0,89,0.00,,,0.01,Wunderground v.1.15,2013-11-26 11:35:00,
2013-11-26 05:45:00,35.3,32.1,30.25,North,349,5.0,6.0,88,0.00,,,0.01,Wunderground v.1.15,2013-11-26 11:45:00,
2013-11-26 05:50:00,35.3,32.1,30.24,NNW,338,6.0,6.0,88,0.00,,,0.01,Wunderground v.1.15,2013-11-26 11:50:00,
2013-11-26 05:55:00,35.3,32.1,30.24,NNW,342,7.0,11.0,88,0.00,,,0.01,Wunderground v.1.15,2013-11-26 11:55:00,
2013-11-26 06:05:00,35.3,32.1,30.24,NNE,25,7.0,10.0,88,0.00,,,0.01,Wunderground v.1.15,2013-11-26 12:05:00,
2013-11-26 06:10:00,35.3,32.1,30.24,NNW,346,7.0,7.0,88,0.00,,,0.01,Wunderground v.1.15,2013-11-26 12:10:00,
2013-11-26 06:15:00,35.3,32.1,30.24,North,355,7.0,7.0,88,0.00,,,0.01,Wunderground v.1.15,2013-11-26 12:15:00,
2013-11-26 06:20:00,35.3,32.1,30.25,NNW,343,6.0,6.0,88,0.00,,,0.01,Wunderground v.1.15,2013-11-26 12:20:00,
2013-11-26 06:29:00,35.4,32.2,30.27,North,5,4.0,4.0,88,0.00,,,0.01,Wunderground v.1.15,2013-11-26 12:29:00,
2013-11-26 06:34:00,35.5,32.0,30.27,North,360,5.0,5.0,87,0.00,,,0.01,Wunderground v.1.15,2013-11-26 12:34:00,
2013-11-26 06:40:00,35.5,32.0,30.27,North,350,4.0,5.0,87,0.00,,,0.01,Wunderground v.1.15,2013-11-26 12:40:00,
2013-11-26 06:45:00,35.5,32.0,30.28,NNW,338,2.0,5.0,87,0.00,,,0.01,Wunderground v.1.15,2013-11-26 12:45:00,
2013-11-26 06:50:00,35.5,32.0,30.29,NNE,13,2.0,4.0,87,0.00,,,0.01,Wunderground v.1.15,2013-11-26 12:50:00,
2013-11-26 06:55:00,35.5,32.0,30.28,NNE,15,3.0,4.0,87,0.00,,,0.01,Wunderground v.1.15,2013-11-26 12:55:00,
2013-11-26 07:00:00,35.6,32.1,30.28,North,360,4.0,5.0,87,0.00,,,0.01,Wunderground v.1.15,2013-11-26 13:00:00,
2013-11-26 07:05:00,35.5,32.0,30.28,North,5,5.0,6.0,87,0.00,,,0.01,Wunderground v.1.15,2013-11-26 13:05:00,
2013-11-26 07:10:00,35.5,32.0,30.27,North,5,5.0,5.0,87,0.00,,,0.01,Wunderground v.1.15,2013-11-26 13:10:00,
2013-11-26 07:15:00,35.5,32.0,30.27,North,349,5.0,6.0,87,0.00,,,0.01,Wunderground v.1.15,2013-11-26 13:15:00,
2013-11-26 07:20:00,35.5,32.0,30.27,North,5,5.0,7.0,87,0.00,,,0.01,Wunderground v.1.15,2013-11-26 13:20:00,
2013-11-26 07:25:00,35.5,32.0,30.28,North,355,5.0,7.0,87,0.00,,,0.01,Wunderground v.1.15,2013-11-26 13:25:00,
2013-11-26 07:35:00,35.6,32.1,30.28,NNW,340,4.0,6.0,87,0.00,,,0.01,Wunderground v.1.15,2013-11-26 13:35:00,
2013-11-26 07:40:00,35.5,32.0,30.28,NNW,346,4.0,4.0,87,0.00,,,0.01,Wunderground v.1.15,2013-11-26 13:40:00,
2013-11-26 07:50:00,35.7,32.2,30.28,NNW,348,4.0,4.0,87,0.00,,,0.01,Wunderground v.1.15,2013-11-26 13:50:00,
2013-11-26 07:55:00,35.7,32.2,30.28,NNW,344,4.0,4.0,87,0.00,,,0.01,Wunderground v.1.15,2013-11-26 13:55:00,
2013-11-26 08:05:00,36.0,32.5,30.28,NNW,329,4.0,6.0,87,0.00,,,0.01,Wunderground v.1.15,2013-11-26 14:05:00,
2013-11-26 08:15:00,36.0,32.2,30.28,NW,313,4.0,8.0,86,0.00,,,0.01,Wunderground v.1.15,2013-11-26 14:15:00,
2013-11-26 08:20:00,35.9,32.1,30.28,NNW,335,4.0,7.0,86,0.00,,,0.01,Wunderground v.1.15,2013-11-26 14:20:00,
2013-11-26 08:25:00,36.1,32.3,30.28,NNW,336,5.0,7.0,86,0.00,,,0.01,Wunderground v.1.15,2013-11-26 14:25:00,
2013-11-26 08:30:00,36.3,32.5,30.28,NNW,348,6.0,6.0,86,0.00,,,0.01,Wunderground v.1.15,2013-11-26 14:30:00,
2013-11-26 08:35:00,36.6,32.5,30.29,North,355,6.0,6.0,85,0.00,,,0.01,Wunderground v.1.15,2013-11-26 14:35:00,
2013-11-26 08:45:00,36.8,32.7,30.29,NNW,344,7.0,8.0,85,0.00,,,0.01,Wunderground v.1.15,2013-11-26 14:45:00,
2013-11-26 08:54:00,37.1,32.1,30.28,NNW,329,10.0,10.0,82,0.00,,,0.01,Wunderground v.1.15,2013-11-26 14:54:00,
2013-11-26 08:59:00,37.4,32.7,30.28,NNW,345,7.0,7.0,83,0.00,,,0.01,Wunderground v.1.15,2013-11-26 14:59:00,
2013-11-26 09:04:00,37.5,32.5,30.29,NNW,338,6.0,9.0,82,0.00,,,0.01,Wunderground v.1.15,2013-11-26 15:04:00,
2013-11-26 09:09:00,37.7,32.4,30.29,NNW,331,7.0,8.0,81,0.00,,,0.01,Wunderground v.1.15,2013-11-26 15:09:00,
2013-11-26 09:14:00,38.0,32.4,30.29,NNW,345,9.0,9.0,80,0.00,,,0.01,Wunderground v.1.15,2013-11-26 15:14:00,
2013-11-26 09:19:00,38.1,32.2,30.29,North,11,9.0,14.0,79,0.00,,,0.01,Wunderground v.1.15,2013-11-26 15:19:00,
2013-11-26 09:24:00,38.3,32.4,30.29,NNW,340,10.0,14.0,79,0.00,,,0.01,Wunderground v.1.15,2013-11-26 15:24:00,
2013-11-26 09:29:00,38.7,32.4,30.29,NNW,336,9.0,9.0,78,0.00,,,0.01,Wunderground v.1.15,2013-11-26 15:29:00,
2013-11-26 09:34:00,39.1,32.8,30.29,North,11,7.0,11.0,78,0.00,,,0.01,Wunderground v.1.15,2013-11-26 15:34:00,
2013-11-26 09:39:00,39.2,32.6,30.30,North,9,7.0,13.0,77,0.00,,,0.01,Wunderground v.1.15,2013-11-26 15:39:00,
2013-11-26 09:49:00,39.4,32.5,30.30,North,355,9.0,9.0,76,0.00,,,0.01,Wunderground v.1.15,2013-11-26 15:49:00,
2013-11-26 09:55:00,39.4,32.5,30.30,North,5,8.0,9.0,76,0.00,,,0.01,Wunderground v.1.15,2013-11-26 15:55:00,
2013-11-26 10:05:00,39.7,32.1,30.30,NNE,28,9.0,9.0,74,0.00,,,0.01,Wunderground v.1.15,2013-11-26 16:05:00,
2013-11-26 10:10:00,40.0,32.4,30.30,NNW,346,10.0,13.0,74,0.00,,,0.01,Wunderground v.1.15,2013-11-26 16:10:00,
2013-11-26 10:20:00,40.2,32.6,30.30,North,5,9.0,9.0,74,0.00,,,0.01,Wunderground v.1.15,2013-11-26 16:20:00,
2013-11-26 10:30:00,41.1,33.1,30.30,North,5,7.0,14.0,73,0.00,,,0.01,Wunderground v.1.15,2013-11-26 16:30:00,
2013-11-26 10:35:00,41.2,33.2,30.30,NW,320,8.0,14.0,73,0.00,,,0.01,Wunderground v.1.15,2013-11-26 16:35:00,
2013-11-26 10:40:00,41.5,33.1,30.30,NNE,32,7.0,7.0,72,0.00,,,0.01,Wunderground v.1.15,2013-11-26 16:40:00,
2013-11-26 10:50:00,42.0,33.3,30.29,NNE,22,7.0,7.0,71,0.00,,,0.01,Wunderground v.1.15,2013-11-26 16:50:00,
2013-11-26 10:59:00,42.7,33.2,30.30,NE,38,9.0,9.0,69,0.00,,,0.01,Wunderground v.1.15,2013-11-26 16:59:00,
2013-11-26 11:05:00,43.1,32.9,30.30,NNE,25,8.0,12.0,67,0.00,,,0.01,Wunderground v.1.15,2013-11-26 17:05:00,
2013-11-26 11:10:00,43.0,32.8,30.30,NNW,340,9.0,12.0,67,0.00,,,0.01,Wunderground v.1.15,2013-11-26 17:10:00,
2013-11-26 11:15:00,43.4,32.8,30.30,NNW,333,9.0,12.0,66,0.00,,,0.01,Wunderground v.1.15,2013-11-26 17:15:00,
2013-11-26 11:20:00,43.5,32.9,30.30,North,355,9.0,9.0,66,0.00,,,0.01,Wunderground v.1.15,2013-11-26 17:20:00,
2013-11-26 11:30:00,43.8,32.8,30.29,NNE,19,10.0,13.0,65,0.00,,,0.01,Wunderground v.1.15,2013-11-26 17:30:00,
2013-11-26 11:35:00,44.2,33.2,30.29,NNE,31,9.0,14.0,65,0.00,,,0.01,Wunderground v.1.15,2013-11-26 17:35:00,
2013-11-26 11:40:00,44.2,33.2,30.29,North,355,10.0,12.0,65,0.00,,,0.01,Wunderground v.1.15,2013-11-26 17:40:00,
2013-11-26 11:50:00,44.2,32.4,30.29,NNE,13,12.0,16.0,63,0.00,,,0.01,Wunderground v.1.15,2013-11-26 17:50:00,
2013-11-26 12:00:00,44.7,32.5,30.29,NNW,336,10.0,15.0,62,0.00,,,0.01,Wunderground v.1.15,2013-11-26 18:00:00,
2013-11-26 12:05:00,44.8,32.6,30.29,NNW,328,11.0,15.0,62,0.00,,,0.01,Wunderground v.1.15,2013-11-26 18:05:00,
2013-11-26 12:10:00,44.9,32.3,30.28,North,355,11.0,11.0,61,0.00,,,0.01,Wunderground v.1.15,2013-11-26 18:10:00,
2013-11-26 12:15:00,44.9,32.7,30.28,NNW,330,11.0,12.0,62,0.00,,,0.01,Wunderground v.1.15,2013-11-26 18:15:00,
2013-11-26 12:25:00,45.1,32.4,30.27,North,360,11.0,19.0,61,0.00,,,0.01,Wunderground v.1.15,2013-11-26 18:25:00,
2013-11-26 12:35:00,45.8,32.7,30.26,NW,325,9.0,10.0,60,0.00,,,0.01,Wunderground v.1.15,2013-11-26 18:35:00,
2013-11-26 12:44:00,45.4,32.3,30.26,NNW,346,10.0,12.0,60,0.00,,,0.01,Wunderground v.1.15,2013-11-26 18:44:00,
2013-11-26 12:49:00,45.8,31.9,30.26,North,355,11.0,21.0,58,0.00,,,0.01,Wunderground v.1.15,2013-11-26 18:49:00,
2013-11-26 12:54:00,45.9,32.4,30.25,North,5,12.0,21.0,59,0.00,,,0.01,Wunderground v.1.15,2013-11-26 18:54:00,
2013-11-26 13:00:00,46.4,30.6,30.25,North,355,12.0,15.0,54,0.00,,,0.01,Wunderground v.1.15,2013-11-26 19:00:00,
2013-11-26 13:05:00,46.4,30.6,30.25,NNW,342,14.0,15.0,54,0.00,,,0.01,Wunderground v.1.15,2013-11-26 19:05:00,
2013-11-26 13:10:00,46.8,30.6,30.25,North,5,13.0,13.0,53,0.00,,,0.01,Wunderground v.1.15,2013-11-26 19:10:00,
2013-11-26 13:15:00,47.1,31.3,30.25,NNW,346,11.0,13.0,54,0.00,,,0.01,Wunderground v.1.15,2013-11-26 19:15:00,
2013-11-26 13:25:00,47.4,30.6,30.25,NNW,346,9.0,12.0,52,0.00,,,0.01,Wunderground v.1.15,2013-11-26 19:25:00,
2013-11-26 13:35:00,47.5,29.8,30.24,North,5,12.0,19.0,50,0.00,,,0.01,Wunderground v.1.15,2013-11-26 19:35:00,
2013-11-26 13:40:00,47.3,30.1,30.25,NNE,16,13.0,16.0,51,0.00,,,0.01,Wunderground v.1.15,2013-11-26 19:40:00,
2013-11-26 13:45:00,47.3,29.1,30.24,North,349,14.0,16.0,49,0.00,,,0.01,Wunderground v.1.15,2013-11-26 19:45:00,
2013-11-26 13:50:00,47.5,29.8,30.24,NNE,15,14.0,14.0,50,0.00,,,0.01,Wunderground v.1.15,2013-11-26 19:50:00,
2013-11-26 13:55:00,48.0,30.2,30.25,North,5,12.0,14.0,50,0.00,,,0.01,Wunderground v.1.15,2013-11-26 19:55:00,
2013-11-26 14:05:00,48.1,29.8,30.25,North,351,11.0,14.0,49,0.00,,,0.01,Wunderground v.1.15,2013-11-26 20:05:00,
2013-11-26 14:10:00,48.2,29.9,30.24,NNW,327,11.0,11.0,49,0.00,,,0.01,Wunderground v.1.15,2013-11-26 20:10:00,
2013-11-26 14:15:00,48.2,29.4,30.24,North,9,12.0,12.0,48,0.00,,,0.01,Wunderground v.1.15,2013-11-26 20:15:00,
2013-11-26 14:20:00,48.3,29.5,30.24,North,360,12.0,12.0,48,0.00,,,0.01,Wunderground v.1.15,2013-11-26 20:20:00,
2013-11-26 14:25:00,48.1,28.8,30.24,North,360,11.0,12.0,47,0.00,,,0.01,Wunderground v.1.15,2013-11-26 20:25:00,
2013-11-26 14:34:00,48.0,28.7,30.24,NNW,348,14.0,14.0,47,0.00,,,0.01,Wunderground v.1.15,2013-11-26 20:34:00,
2013-11-26 14:40:00,48.0,28.7,30.24,North,360,13.0,13.0,47,0.00,,,0.01,Wunderground v.1.15,2013-11-26 20:40:00,
2013-11-26 14:45:00,48.2,27.8,30.24,NNW,348,13.0,14.0,45,0.00,,,0.01,Wunderground v.1.15,2013-11-26 20:45:00,
2013-11-26 14:50:00,48.0,28.2,30.24,North,5,13.0,17.0,46,0.00,,,0.01,Wunderground v.1.15,2013-11-26 20:50:00,
2013-11-26 14:55:00,48.1,29.3,30.24,North,355,13.0,17.0,48,0.00,,,0.01,Wunderground v.1.15,2013-11-26 20:55:00,
2013-11-26 15:04:00,48.1,29.3,30.24,NNW,347,12.0,12.0,48,0.00,,,0.01,Wunderground v.1.15,2013-11-26 21:04:00,
2013-11-26 15:10:00,48.3,29.0,30.24,NW,326,13.0,15.0,47,0.00,,,0.01,Wunderground v.1.15,2013-11-26 21:10:00,
2013-11-26 15:15:00,48.3,29.0,30.24,North,350,11.0,15.0,47,0.00,,,0.01,Wunderground v.1.15,2013-11-26 21:15:00,
2013-11-26 15:24:00,48.6,28.2,30.25,North,355,12.0,19.0,45,0.00,,,0.01,Wunderground v.1.15,2013-11-26 21:24:00,
2013-11-26 15:29:00,48.7,27.7,30.25,North,355,11.0,16.0,44,0.00,,,0.01,Wunderground v.1.15,2013-11-26 21:29:00,
2013-11-26 15:34:00,48.6,27.1,30.25,NNW,338,11.0,16.0,43,0.00,,,0.01,Wunderground v.1.15,2013-11-26 21:34:00,
2013-11-26 15:40:00,48.5,26.4,30.25,North,350,13.0,13.0,42,0.00,,,0.01,Wunderground v.1.15,2013-11-26 21:40:00,
2013-11-26 15:45:00,48.5,27.6,30.25,NNW,327,11.0,13.0,44,0.00,,,0.01,Wunderground v.1.15,2013-11-26 21:45:00,
2013-11-26 15:50:00,48.5,27.6,30.25,NW,323,11.0,11.0,44,0.00,,,0.01,Wunderground v.1.15,2013-11-26 21:50:00,
2013-11-26 15:55:00,48.1,26.6,30.25,NNW,327,13.0,13.0,43,0.00,,,0.01,Wunderground v.1.15,2013-11-26 21:55:00,
2013-11-26 16:00:00,48.1,26.6,30.25,North,349,13.0,15.0,43,0.00,,,0.01,Wunderground v.1.15,2013-11-26 22:00:00,
2013-11-26 16:05:00,47.9,26.5,30.26,North,355,13.0,21.0,43,0.00,,,0.01,Wunderground v.1.15,2013-11-26 22:05:00,
2013-11-26 16:14:00,47.8,25.8,30.26,NNW,345,13.0,17.0,42,0.00,,,0.01,Wunderground v.1.15,2013-11-26 22:14:00,
2013-11-26 16:20:00,47.7,25.7,30.26,NNW,347,12.0,17.0,42,0.00,,,0.01,Wunderground v.1.15,2013-11-26 22:20:00,
2013-11-26 16:29:00,47.4,26.0,30.27,North,360,13.0,13.0,43,0.00,,,0.01,Wunderground v.1.15,2013-11-26 22:29:00,
2013-11-26 16:34:00,47.3,25.9,30.27,North,360,14.0,16.0,43,0.00,,,0.01,Wunderground v.1.15,2013-11-26 22:34:00,
2013-11-26 16:39:00,47.2,25.8,30.27,North,360,14.0,14.0,43,0.00,,,0.01,Wunderground v.1.15,2013-11-26 22:39:00,
2013-11-26 16:44:00,47.1,25.7,30.27,NNE,14,14.0,18.0,43,0.00,,,0.01,Wunderground v.1.15,2013-11-26 22:44:00,
2013-11-26 16:49:00,46.9,25.5,30.27,NNW,340,13.0,13.0,43,0.00,,,0.01,Wunderground v.1.15,2013-11-26 22:49:00,
2013-11-26 16:55:00,46.8,26.0,30.28,NNW,341,12.0,18.0,44,0.00,,,0.01,Wunderground v.1.15,2013-11-26 22:55:00,
2013-11-26 17:00:00,46.6,25.8,30.28,NNE,21,12.0,12.0,44,0.00,,,0.01,Wunderground v.1.15,2013-11-26 23:00:00,
2013-11-26 17:05:00,46.4,26.2,30.28,NW,320,12.0,12.0,45,0.00,,,0.01,Wunderground v.1.15,2013-11-26 23:05:00,
2013-11-26 17:10:00,46.3,26.1,30.29,NNW,344,11.0,11.0,45,0.00,,,0.01,Wunderground v.1.15,2013-11-26 23:10:00,
2013-11-26 17:15:00,46.1,26.4,30.29,NNE,13,11.0,11.0,46,0.00,,,0.01,Wunderground v.1.15,2013-11-26 23:15:00,
2013-11-26 17:24:00,45.8,27.2,30.29,NNW,345,10.0,10.0,48,0.00,,,0.01,Wunderground v.1.15,2013-11-26 23:24:00,
2013-11-26 17:34:00,45.4,27.8,30.30,North,360,9.0,11.0,50,0.00,,,0.01,Wunderground v.1.15,2013-11-26 23:34:00,
2013-11-26 17:39:00,45.2,27.6,30.30,NNE,13,9.0,9.0,50,0.00,,,0.01,Wunderground v.1.15,2013-11-26 23:39:00,
2013-11-26 17:44:00,45.0,27.9,30.30,North,360,9.0,9.0,51,0.00,,,0.01,Wunderground v.1.15,2013-11-26 23:44:00,
2013-11-26 17:49:00,44.8,27.8,30.30,North,5,8.0,8.0,51,0.00,,,0.01,Wunderground v.1.15,2013-11-26 23:49:00,
2013-11-26 17:55:00,44.6,28.0,30.30,NNW,329,8.0,8.0,52,0.00,,,0.01,Wunderground v.1.15,2013-11-26 23:55:00,
2013-11-26 18:00:00,44.4,27.9,30.30,North,360,8.0,8.0,52,0.00,,,0.01,Wunderground v.1.15,2013-11-27 00:00:00,
2013-11-26 18:05:00,44.2,27.7,30.31,NNW,347,9.0,11.0,52,0.00,,,0.01,Wunderground v.1.15,2013-11-27 00:05:00,
2013-11-26 18:10:00,44.0,28.0,30.31,NNE,14,9.0,9.0,53,0.00,,,0.01,Wunderground v.1.15,2013-11-27 00:10:00,
2013-11-26 18:19:00,43.7,28.1,30.31,NW,319,8.0,8.0,54,0.00,,,0.01,Wunderground v.1.15,2013-11-27 00:19:00,
2013-11-26 18:24:00,43.6,28.0,30.32,North,351,9.0,9.0,54,0.00,,,0.01,Wunderground v.1.15,2013-11-27 00:24:00,
2013-11-26 18:35:00,43.2,28.1,30.32,North,9,7.0,8.0,55,0.00,,,0.01,Wunderground v.1.15,2013-11-27 00:35:00,
2013-11-26 18:40:00,43.0,28.4,30.32,NNE,19,7.0,7.0,56,0.00,,,0.01,Wunderground v.1.15,2013-11-27 00:40:00,
2013-11-26 18:49:00,42.7,27.6,30.33,NNW,344,9.0,16.0,55,0.00,,,0.01,Wunderground v.1.15,2013-11-27 00:49:00,
2013-11-26 18:54:00,42.4,27.4,30.33,NNW,333,10.0,16.0,55,0.00,,,0.01,Wunderground v.1.15,2013-11-27 00:54:00,
2013-11-26 19:00:00,42.2,27.2,30.33,North,5,10.0,16.0,55,0.00,,,0.01,Wunderground v.1.15,2013-11-27 01:00:00,
2013-11-26 19:10:00,41.9,26.9,30.34,North,11,11.0,14.0,55,0.00,,,0.01,Wunderground v.1.15,2013-11-27 01:10:00,
2013-11-26 19:15:00,41.7,26.7,30.34,North,10,11.0,14.0,55,0.00,,,0.01,Wunderground v.1.15,2013-11-27 01:15:00,
2013-11-26 19:20:00,41.6,26.6,30.34,North,5,13.0,13.0,55,0.00,,,0.01,Wunderground v.1.15,2013-11-27 01:20:00,
2013-11-26 19:25:00,41.6,26.6,30.35,North,355,13.0,13.0,55,0.00,,,0.01,Wunderground v.1.15,2013-11-27 01:25:00,
2013-11-26 19:30:00,41.4,26.4,30.35,NNW,348,12.0,12.0,55,0.00,,,0.01,Wunderground v.1.15,2013-11-27 01:30:00,
2013-11-26 19:39:00,41.0,26.5,30.36,NNW,338,10.0,12.0,56,0.00,,,0.01,Wunderground v.1.15,2013-11-27 01:39:00,
2013-11-26 19:45:00,40.9,26.4,30.36,North,355,10.0,12.0,56,0.00,,,0.01,Wunderground v.1.15,2013-11-27 01:45:00,
2013-11-26 19:50:00,40.8,26.3,30.36,NNW,339,11.0,11.0,56,0.00,,,0.01,Wunderground v.1.15,2013-11-27 01:50:00,
2013-11-26 19:55:00,40.6,26.5,30.36,NNW,335,12.0,16.0,57,0.00,,,0.01,Wunderground v.1.15,2013-11-27 01:55:00,
2013-11-26 20:00:00,40.5,26.4,30.37,NNW,343,12.0,17.0,57,0.00,,,0.01,Wunderground v.1.15,2013-11-27 02:00:00,
2013-11-26 20:09:00,40.2,26.6,30.38,North,351,13.0,13.0,58,0.00,,,0.01,Wunderground v.1.15,2013-11-27 02:09:00,
2013-11-26 20:14:00,40.1,26.5,30.38,NNW,344,12.0,16.0,58,0.00,,,0.01,Wunderground v.1.15,2013-11-27 02:14:00,
2013-11-26 20:19:00,39.8,26.6,30.38,NW,322,10.0,10.0,59,0.00,,,0.01,Wunderground v.1.15,2013-11-27 02:19:00,
2013-11-26 20:29:00,39.4,26.7,30.39,North,9,10.0,10.0,60,0.00,,,0.01,Wunderground v.1.15,2013-11-27 02:29:00,
2013-11-26 20:34:00,39.3,27.0,30.39,North,360,10.0,15.0,61,0.00,,,0.01,Wunderground v.1.15,2013-11-27 02:34:00,
2013-11-26 20:40:00,39.1,26.8,30.40,North,9,11.0,11.0,61,0.00,,,0.01,Wunderground v.1.15,2013-11-27 02:40:00,
2013-11-26 20:45:00,38.8,26.9,30.39,NNE,21,10.0,11.0,62,0.00,,,0.01,Wunderground v.1.15,2013-11-27 02:45:00,
2013-11-26 20:50:00,38.7,26.8,30.39,North,11,9.0,10.0,62,0.00,,,0.01,Wunderground v.1.15,2013-11-27 02:50:00,
2013-11-26 20:55:00,38.5,26.6,30.40,NNW,348,10.0,10.0,62,0.00,,,0.01,Wunderground v.1.15,2013-11-27 02:55:00,
2013-11-26 21:00:00,38.4,26.5,30.40,North,9,9.0,12.0,62,0.00,,,0.01,Wunderground v.1.15,2013-11-27 03:00:00,
2013-11-26 21:05:00,38.2,26.3,30.39,North,355,10.0,12.0,62,0.00,,,0.01,Wunderground v.1.15,2013-11-27 03:05:00,
2013-11-26 21:14:00,37.9,26.0,30.40,NNE,27,9.0,9.0,62,0.00,,,0.01,Wunderground v.1.15,2013-11-27 03:14:00,
2013-11-26 21:19:00,37.8,25.9,30.40,North,350,10.0,10.0,62,0.00,,,0.01,Wunderground v.1.15,2013-11-27 03:19:00,
2013-11-26 21:24:00,37.6,25.7,30.40,North,11,9.0,15.0,62,0.00,,,0.01,Wunderground v.1.15,2013-11-27 03:24:00,
2013-11-26 21:30:00,37.5,25.7,30.40,NNE,16,10.0,10.0,62,0.00,,,0.01,Wunderground v.1.15,2013-11-27 03:30:00,
2013-11-26 21:35:00,37.4,25.9,30.41,NNW,338,9.0,10.0,63,0.00,,,0.01,Wunderground v.1.15,2013-11-27 03:35:00,
2013-11-26 21:45:00,37.1,25.7,30.41,NNW,335,9.0,9.0,63,0.00,,,0.01,Wunderground v.1.15,2013-11-27 03:45:00,
2013-11-26 21:50:00,37.0,25.6,30.41,North,355,8.0,9.0,63,0.00,,,0.01,Wunderground v.1.15,2013-11-27 03:50:00,
2013-11-26 21:55:00,36.8,25.4,30.42,NNE,19,7.0,9.0,63,0.00,,,0.01,Wunderground v.1.15,2013-11-27 03:55:00,
2013-11-26 22:00:00,36.7,25.3,30.42,North,360,8.0,8.0,63,0.00,,,0.01,Wunderground v.1.15,2013-11-27 04:00:00,
2013-11-26 22:05:00,36.5,25.5,30.42,NNE,22,9.0,9.0,64,0.00,,,0.01,Wunderground v.1.15,2013-11-27 04:05:00,
2013-11-26 22:15:00,36.2,25.2,30.42,NNW,327,7.0,8.0,64,0.00,,,0.01,Wunderground v.1.15,2013-11-27 04:15:00,
2013-11-26 22:20:00,36.1,25.1,30.43,North,5,8.0,8.0,64,0.00,,,0.01,Wunderground v.1.15,2013-11-27 04:20:00,
2013-11-26 22:30:00,35.8,24.4,30.42,NNW,346,7.0,8.0,63,0.00,,,0.01,Wunderground v.1.15,2013-11-27 04:30:00,
2013-11-26 22:35:00,35.7,24.7,30.42,North,355,7.0,8.0,64,0.00,,,0.01,Wunderground v.1.15,2013-11-27 04:35:00,
2013-11-26 22:40:00,35.6,24.2,30.42,North,355,7.0,10.0,63,0.00,,,0.01,Wunderground v.1.15,2013-11-27 04:40:00,
2013-11-26 22:50:00,35.4,23.7,30.42,NNE,17,8.0,11.0,62,0.00,,,0.01,Wunderground v.1.15,2013-11-27 04:50:00,
2013-11-26 23:00:00,35.3,23.2,30.43,North,11,8.0,10.0,61,0.00,,,0.01,Wunderground v.1.15,2013-11-27 05:00:00,
2013-11-26 23:04:00,35.1,23.0,30.43,North,11,7.0,10.0,61,0.00,,,0.01,Wunderground v.1.15,2013-11-27 05:04:00,
2013-11-26 23:14:00,35.1,22.2,30.43,NNE,24,9.0,9.0,59,0.00,,,0.01,Wunderground v.1.15,2013-11-27 05:14:00,
2013-11-26 23:19:00,35.1,21.8,30.43,NNW,348,9.0,12.0,58,0.00,,,0.01,Wunderground v.1.15,2013-11-27 05:19:00,
2013-11-26 23:24:00,35.0,21.7,30.42,North,355,7.0,12.0,58,0.00,,,0.01,Wunderground v.1.15,2013-11-27 05:24:00,
2013-11-26 23:29:00,35.0,21.7,30.43,North,11,8.0,8.0,58,0.00,,,0.01,Wunderground v.1.15,2013-11-27 05:29:00,
2013-11-26 23:34:00,35.0,21.3,30.43,NW,319,9.0,9.0,57,0.00,,,0.01,Wunderground v.1.15,2013-11-27 05:34:00,
2013-11-26 23:44:00,35.1,21.0,30.43,NNE,17,10.0,10.0,56,0.00,,,0.01,Wunderground v.1.15,2013-11-27 05:44:00,
2013-11-26 23:50:00,35.0,20.9,30.43,NNW,328,9.0,9.0,56,0.00,,,0.01,Wunderground v.1.15,2013-11-27 05:50:00,
2013-11-26 23:55:00,35.1,20.5,30.43,North,360,10.0,10.0,55,0.00,,,0.01,Wunderground v.1.15,2013-11-27 05:55:00,